History for HETR

El Tor, Egypt

Daily Weekly Monthly
Daily Summary for Thursday, March 21, 2019
  Actual: Average: Record:
Temperature
Mean Temperature: 66 °F / 18 °C - :  
Max Temperature: 73 °F / 22 °C 80 °F / 27 °C - ()
Min Temperature: 59 °F / 15 °C 61 °F / 16 °C - ()
Cooling Degree Days 1    
Growing Degree Days 16 (Base 50)    
Moisture
Dew Point 55 °F / 13 °C    
Average Humidity 67    
Maximum Humidity 78    
Minimum Humidity 55    
Precipitation
Precipitation 0.00 in / 0.0 cm 0.00 in / 0.0 cm - ()
Sea Level Pressure
Sea Level Pressure 29.88 in / 1011.69 hPa   
Wind
Wind Speed 11 mph / 18 km/h ()  
Max Wind Speed 28 mph / 44 km/h   
Max Gust Speed -   
Visibility 4.6 miles / 7.6 kilometers   
Events     

Key: T is trace of precipitation, MM is missing value
Source: Averaged Metar Reports

Graphs

Observations

History Graphs Observations

Obs Go Here...

Features

Weather Apps

WunderRadio

Weather Underground Apps
Check out our wide variety of mobile and setup applications.

Weather Underground Applications

Top of Page

© Copyright 2019
The Weather Company, LLC
Time(EET)TemperatureDew PointHumidity Sea Level Pressure Visibility Wind DirectionWind SpeedGust SpeedPrecipitationEvents Conditions
12:00 AM 62.6 °F / 17.0 °C 51.8 °F / 11.0 °C 68% 29.89 in / 1012 hPa - WNW 6.9 mph / 11.1 km/h - N/A   Clear
1:00 AM 60.8 °F / 16.0 °C 50.0 °F / 10.0 °C 68% 29.92 in / 1013 hPa - NW 9.2 mph / 14.8 km/h - N/A   Clear
2:00 AM 61 °F / 16 °C 51 °F / 10 °C 60% 29.87 in / 1011 hPa 6 miles / 10 kilometers NNW 16.1 mph / 25.9 km/h - -  
2:00 AM 60.8 °F / 16.0 °C 50.0 °F / 10.0 °C 68% 29.86 in / 1011 hPa - NNW 16.1 mph / 25.9 km/h - N/A   Clear
3:00 AM 59.0 °F / 15.0 °C 50.0 °F / 10.0 °C 72% 29.86 in / 1011 hPa - NW 13.8 mph / 22.2 km/h - N/A   Clear
4:00 AM 57.2 °F / 14.0 °C 48.2 °F / 9.0 °C 72% 29.86 in / 1011 hPa - NW 11.5 mph / 18.5 km/h - N/A   Clear
5:00 AM 58 °F / 15 °C 50 °F / 10 °C 67% 29.87 in / 1011 hPa 6 miles / 10 kilometers Calm Calm - -  
5:00 AM 59.0 °F / 15.0 °C 50.0 °F / 10.0 °C 72% 29.86 in / 1011 hPa - Calm Calm - N/A   Clear
6:00 AM 60.8 °F / 16.0 °C 50.0 °F / 10.0 °C 68% 29.86 in / 1011 hPa - Calm Calm - N/A   Clear
7:00 AM 64.4 °F / 18.0 °C 48.2 °F / 9.0 °C 56% 29.86 in / 1011 hPa - Calm Calm - N/A   Clear
8:00 AM 65 °F / 18 °C 57 °F / 14 °C 69% 29.91 in / 1013 hPa 6 miles / 10 kilometers WNW 18.4 mph / 29.6 km/h - -   Clear
8:00 AM 64.4 °F / 18.0 °C 57.2 °F / 14.0 °C 77% 29.92 in / 1013 hPa - WNW 18.4 mph / 29.6 km/h - N/A   Clear
9:00 AM 68.0 °F / 20.0 °C 57.2 °F / 14.0 °C 68% 29.95 in / 1014 hPa - WNW 16.1 mph / 25.9 km/h - N/A   Clear
10:00 AM 68.0 °F / 20.0 °C 55.4 °F / 13.0 °C 64% 29.92 in / 1013 hPa - WNW 18.4 mph / 29.6 km/h - N/A   Clear
11:00 AM 69 °F / 21 °C 62 °F / 17 °C 72% 29.92 in / 1013 hPa 6 miles / 10 kilometers WNW 20.7 mph / 33.3 km/h - -  
11:00 AM 69.8 °F / 21.0 °C 62.6 °F / 17.0 °C 78% 29.92 in / 1013 hPa - WNW 20.7 mph / 33.3 km/h - N/A   Clear
12:00 PM 69.8 °F / 21.0 °C 60.8 °F / 16.0 °C 73% 29.92 in / 1013 hPa - WNW 20.7 mph / 33.3 km/h - N/A   Clear
2:00 PM 72 °F / 22 °C 60 °F / 16 °C 57% 29.87 in / 1011 hPa 2 miles / 4.0 kilometers WNW 27.6 mph / 44.4 km/h - -   Blowing Sand
3:00 PM 71.6 °F / 22.0 °C 60.8 °F / 16.0 °C 69% 29.83 in / 1010 hPa 2.5 miles / 4.0 kilometers NW 25.3 mph / 40.7 km/h - N/A   Sand
4:00 PM 71.6 °F / 22.0 °C 60.8 °F / 16.0 °C 69% 29.83 in / 1010 hPa 3.7 miles / 6.0 kilometers WNW 20.7 mph / 33.3 km/h - N/A   Unknown
5:00 PM 71 °F / 21 °C 59 °F / 15 °C 58% 29.84 in / 1010 hPa 4 miles / 6 kilometers WNW 23.0 mph / 37.0 km/h - -   Blowing Sand
5:00 PM 69.8 °F / 21.0 °C 59.0 °F / 15.0 °C 68% 29.83 in / 1010 hPa 3.7 miles / 6.0 kilometers WNW 23.0 mph / 37.0 km/h - N/A   Unknown
8:00 PM 69 °F / 20 °C 56 °F / 14 °C 55% 29.90 in / 1012 hPa 6 miles / 10 kilometers NW 11.5 mph / 18.5 km/h - -  
8:00 PM 68.0 °F / 20.0 °C 57.2 °F / 14.0 °C 68% 29.89 in / 1012 hPa - NW 11.5 mph / 18.5 km/h - N/A   Clear
9:00 PM 66.2 °F / 19.0 °C 55.4 °F / 13.0 °C 68% 29.89 in / 1012 hPa - WNW 11.5 mph / 18.5 km/h - N/A   Clear
10:00 PM 66.2 °F / 19.0 °C 53.6 °F / 12.0 °C 64% 29.89 in / 1012 hPa - NW 11.5 mph / 18.5 km/h - N/A   Clear